Location: ?????
(37.7324°N, 23.9257°E)
Time: 07:44:51
(UTC+00:00)

Lacrosse 4 Rocket - Pass Details

Date: 29 November 2020
Orbit: 538 x 620 km, 68.0° (Epoch: 17 January)

Event Time Altitude Azimuth Distance (km) Brightness Sun altitude
Exits shadow 03:38:30 44° 309° (NW) 837 1.8 -19.5°
Maximum altitude 03:39:42 66° 247° (WSW) 662 1.4 -19.3°
Drops below altitude 10° 03:44:05 10° 165° (SSE) 1,959 4.5 -18.4°
Sets 03:46:22 0° 162° (SSE) 2,867 5.4 -18.0°
